TimeCDT,TemperatureF,Dew PointF,Humidity,Sea Level PressureIn,VisibilityMPH,Wind Direction,Wind SpeedMPH,Gust SpeedMPH,PrecipitationIn,Events,Conditions,WindDirDegrees,DateUTC
12:53 AM,86.0,66.9,53,29.83,10.0,South,9.2,-,N/A,,Clear,180,2013-09-01 05:53:00
1:53 AM,84.9,66.9,55,29.83,10.0,South,9.2,-,N/A,,Clear,190,2013-09-01 06:53:00
2:53 AM,82.9,68.0,60,29.84,10.0,South,8.1,-,N/A,,Clear,180,2013-09-01 07:53:00
3:53 AM,82.0,69.1,65,29.85,10.0,South,8.1,-,N/A,,Clear,190,2013-09-01 08:53:00
4:53 AM,81.0,70.0,69,29.85,10.0,South,9.2,-,N/A,,Clear,190,2013-09-01 09:53:00
5:53 AM,81.0,69.1,67,29.86,10.0,SSW,8.1,-,N/A,,Clear,200,2013-09-01 10:53:00
6:53 AM,79.0,69.1,72,29.86,10.0,South,8.1,-,N/A,,Clear,190,2013-09-01 11:53:00
7:53 AM,80.1,68.0,67,29.88,10.0,South,6.9,-,N/A,,Clear,190,2013-09-01 12:53:00
8:53 AM,84.0,68.0,58,29.89,10.0,South,11.5,-,N/A,,Clear,190,2013-09-01 13:53:00
9:53 AM,89.1,68.0,50,29.90,10.0,SSW,13.8,-,N/A,,Clear,200,2013-09-01 14:53:00
10:53 AM,91.9,68.0,45,29.91,10.0,SSW,6.9,-,N/A,,Scattered Clouds,200,2013-09-01 15:53:00
11:53 AM,95.0,68.0,41,29.89,10.0,South,9.2,-,N/A,,Clear,180,2013-09-01 16:53:00
12:53 PM,98.1,66.9,36,29.88,10.0,South,8.1,-,N/A,,Clear,180,2013-09-01 17:53:00
1:53 PM,100.0,64.9,32,29.85,10.0,SSW,9.2,-,N/A,,Clear,210,2013-09-01 18:53:00
2:53 PM,100.9,64.9,31,29.83,10.0,Variable,3.5,-,N/A,,Scattered Clouds,0,2013-09-01 19:53:00
3:53 PM,100.9,64.0,30,29.81,10.0,Calm,Calm,-,N/A,,Mostly Cloudy,0,2013-09-01 20:53:00
4:53 PM,102.9,64.0,28,29.78,10.0,Variable,5.8,-,N/A,,Clear,0,2013-09-01 21:53:00
5:53 PM,100.0,62.1,29,29.77,10.0,South,8.1,-,N/A,,Clear,180,2013-09-01 22:53:00
6:06 PM,96.8,62.6,32,29.80,10.0,SSE,18.4,28.8,N/A,Thunderstorm,Clear,150,2013-09-01 23:06:00
6:21 PM,96.8,64.4,34,29.80,10.0,South,15.0,-,N/A,,Clear,170,2013-09-01 23:21:00
6:53 PM,98.1,62.1,30,29.79,10.0,South,10.4,-,N/A,,Clear,170,2013-09-01 23:53:00
7:53 PM,90.0,66.0,45,29.80,10.0,SSE,10.4,-,N/A,,Clear,160,2013-09-02 00:53:00
8:53 PM,88.0,66.9,49,29.82,10.0,South,5.8,-,N/A,,Clear,190,2013-09-02 01:53:00
9:53 PM,86.0,66.9,53,29.83,10.0,SSE,4.6,-,N/A,,Clear,160,2013-09-02 02:53:00
10:53 PM,86.0,66.9,53,29.84,10.0,SSE,8.1,-,N/A,,Clear,150,2013-09-02 03:53:00
11:53 PM,84.9,66.0,53,29.85,10.0,South,8.1,-,N/A,,Clear,170,2013-09-02 04:53:00